EW5945 Weather Reports


Display with metric or nautical units.
time (UTC)temp
F
wind
direction
speed
MPH
gust
MPH
rain 1hr
in
rain 24hr
in
rain mn
in
humidity
%
barometer
mb
20181115232645 52 315 3.0 18.0 0.00 0.66 0.66 98 1010.0
20181115232141 52 315 4.0 18.0 0.00 0.66 0.66 98 1009.9
20181115231639 52 315 4.0 11.0 0.00 0.66 0.66 97 1010.0
20181115231133 52 225 2.0 16.0 0.00 0.66 0.66 97 1010.0
20181115230629 53 270 7.0 16.0 0.00 0.66 0.66 96 1009.7
20181115230126 53 270 6.0 16.0 0.00 0.66 0.66 96 1009.6
20181115225622 53 180 4.0 17.0 0.00 0.66 0.66 96 1009.6
20181115225119 54 225 10.0 17.0 0.00 0.66 0.66 97 1009.5
20181115224614 54 225 7.0 13.0 0.00 0.66 0.66 97 1009.5
20181115224111 54 225 7.0 17.0 0.00 0.66 0.66 97 1009.4
20181115223607 54 0 3.0 17.0 0.00 0.66 0.66 97 1009.4
20181115223103 55 225 5.0 19.0 0.00 0.66 0.66 97 1009.2
20181115222559 55 225 10.0 19.0 0.00 0.66 0.66 97 1009.2
20181115222055 56 225 7.0 19.0 0.00 0.66 0.66 97 1009.2
20181115221556 56 293 10.0 16.0 0.00 0.66 0.66 96 1009.1
20181115221052 57 315 10.0 14.0 0.00 0.66 0.66 96 1009.0
20181115220549 58 225 6.0 14.0 0.00 0.66 0.66 96 1008.9
20181115220045 58 270 6.0 12.0 0.00 0.66 0.66 95 1008.8
20181115215540 58 315 7.0 12.0 0.00 0.66 0.66 95 1008.8
20181115215041 59 225 5.0 12.0 0.00 0.66 0.66 95 1008.6
20181115214537 59 225 5.0 13.0 0.00 0.66 0.66 95 1008.4
20181115214033 59 225 7.0 15.0 0.00 0.66 0.66 95 1008.5
20181115213529 60 293 9.0 15.0 0.00 0.66 0.66 94 1008.5
20181115213026 60 315 7.0 15.0 0.00 0.66 0.66 94 1008.5
20181115212523 60 293 7.0 15.0 0.00 0.66 0.66 94 1008.5
20181115212018 61 270 6.0 16.0 0.00 0.66 0.66 94 1008.3
20181115211514 61 135 7.0 16.0 0.00 0.66 0.66 93 1008.2
20181115211010 62 225 7.0 16.0 0.00 0.66 0.66 92 1008.2
20181115210507 62 45 5.0 16.0 0.00 0.66 0.66 92 1008.4
20181115210004 63 270 9.0 16.0 0.00 0.66 0.66 92 1008.2
20181115205459 64 225 6.0 12.0 0.00 0.66 0.66 94 1008.1
20181115204956 65 270 4.0 14.0 0.00 0.66 0.66 95 1008.0
20181115204452 65 315 6.0 14.0 0.00 0.66 0.66 94 1008.0
20181115203948 66 315 2.0 17.0 0.00 0.66 0.66 93 1008.0
20181115203444 67 225 7.0 17.0 0.00 0.66 0.66 93 1008.1
20181115202940 67 225 11.0 17.0 0.00 0.66 0.66 93 1008.0
20181115202437 68 270 6.0 14.0 0.00 0.66 0.66 93 1007.9
20181115201933 68 315 5.0 21.0 0.00 0.66 0.66 93 1007.8
20181115201429 69 270 7.0 21.0 0.00 0.66 0.66 92 1007.8
20181115200926 69 270 4.0 20.0 0.00 0.66 0.66 91 1007.7
20181115200422 70 270 6.0 20.0 0.00 0.66 0.66 91 1007.8
20181115195918 71 270 7.0 21.0 0.00 0.66 0.66 90 1007.5
20181115195414 72 225 10.0 23.0 0.00 0.66 0.66 91 1007.3
20181115194910 73 180 12.0 23.0 0.00 0.66 0.66 95 1007.4
20181115194406 73 248 9.0 15.0 0.00 0.66 0.66 96 1006.9
20181115193903 73 225 6.0 16.0 0.00 0.66 0.66 96 1006.7
20181115193359 73 225 12.0 16.0 0.00 0.66 0.66 97 1006.7
20181115192856 73 180 4.0 13.0 0.00 0.66 0.66 99 1006.7
20181115192351 73 225 7.0 19.0 0.00 0.66 0.66 99 1007.0
20181115191847 73 180 9.0 19.0 0.00 0.66 0.66 100 1007.2
20181115191344 73 180 12.0 21.0 0.00 0.66 0.66 100 1007.3
20181115190840 73 180 7.0 21.0 0.00 0.66 0.66 100 1007.3
20181115190336 73 180 9.0 18.0 0.00 0.66 0.66 100 1007.3
20181115185833 72 225 12.0 19.0 0.00 0.66 0.66 100 1007.3
20181115185328 72 225 5.0 19.0 0.00 0.66 0.66 99 1007.0
20181115184825 72 225 2.0 11.0 0.00 0.66 0.66 99 1007.0
20181115184321 71 225 2.0 11.0 0.00 0.66 0.66 99 1007.0
20181115183818 71 135 1.0 6.0 0.00 0.66 0.66 99 1007.0
20181115183314 71 180 2.0 5.0 0.00 0.66 0.66 99 1007.1
20181115182810 70 180 1.0 7.0 0.00 0.66 0.66 100 1007.1
20181115182306 69 270 1.0 7.0 0.00 0.66 0.66 100 1007.0
20181115181802 69 135 2.0 7.0 0.00 0.66 0.66 99 1007.0
20181115181259 68 135 3.0 5.0 0.00 0.66 0.66 100 1007.2
20181115180756 68 135 2.0 4.0 0.00 0.66 0.66 100 1007.6
20181115180251 67 135 1.0 3.0 0.00 0.66 0.66 100 1007.9
20181115175751 67 90 0.0 4.0 0.22 0.66 0.66 100 1008.0
20181115175248 67 90 1.0 5.0 0.22 0.66 0.66 100 1008.1
20181115174744 66 90 1.0 5.0 0.22 0.66 0.66 100 1008.2
20181115174240 66 45 1.0 4.0 0.25 0.66 0.66 100 1008.5
20181115173736 66 90 2.0 4.0 0.25 0.66 0.66 100 1008.7
20181115173236 65 90 1.0 3.0 0.25 0.66 0.66 100 1008.9
20181115172733 65 90 1.0 3.0 0.25 0.66 0.66 100 1008.9
20181115172229 64 90 1.0 3.0 0.25 0.66 0.66 100 1009.1
20181115171725 64 135 0.0 6.0 0.26 0.66 0.66 100 1009.2
20181115171221 64 45 1.0 6.0 0.43 0.66 0.66 100 1009.3
20181115170717 64 90 3.0 5.0 0.43 0.66 0.66 100 1009.6
20181115170213 63 90 2.0 5.0 0.43 0.66 0.66 100 1009.8
20181115165710 63 90 2.0 5.0 0.20 0.44 0.44 100 1010.1
20181115165206 62 90 0.0 5.0 0.20 0.44 0.44 100 1010.1
20181115164703 62 90 3.0 5.0 0.20 0.44 0.44 100 1010.4
20181115164158 62 45 2.0 5.0 0.21 0.41 0.41 100 1010.6
20181115163655 62 90 1.0 5.0 0.22 0.41 0.41 100 1010.9
20181115163151 62 45 2.0 5.0 0.22 0.41 0.41 100 1010.9
20181115162648 62 0 0.0 7.0 0.24 0.41 0.41 100 1011.1
20181115162143 61 0 3.0 28.0 0.25 0.41 0.41 100 1011.3
20181115161640 61 113 4.0 28.0 0.25 0.37 0.40 100 1011.0
20181115161136 61 180 9.0 24.0 0.12 0.24 0.24 100 1012.3
20181115160632 60 135 7.0 10.0 0.13 0.24 0.24 100 1010.5
20181115160129 60 45 5.0 10.0 0.13 0.24 0.24 100 1010.6
20181115155625 60 90 3.0 11.0 0.13 0.24 0.24 100 1011.2
20181115155121 60 0 3.0 15.0 0.13 0.24 0.24 100 1011.7
20181115154617 60 135 6.0 15.0 0.10 0.20 0.24 100 1011.6
20181115154114 60 113 11.0 16.0 0.12 0.20 0.20 100 1012.1
20181115153609 60 90 3.0 26.0 0.10 0.19 0.19 100 1012.1
20181115153105 60 90 6.0 26.0 0.09 0.18 0.19 100 1012.2
20181115152603 60 90 9.0 23.0 0.09 0.18 0.18 100 1012.3
20181115152059 60 135 4.0 17.0 0.10 0.16 0.16 100 1012.6
20181115151554 59 90 7.0 17.0 0.07 0.12 0.12 100 1012.9
20181115151052 59 135 6.0 17.0 0.07 0.10 0.12 100 1013.0
20181115150547 59 90 7.0 22.0 0.07 0.10 0.10 100 1013.2
20181115150045 59 90 7.0 22.0 0.07 0.10 0.10 100 1013.2
20181115145539 59 90 5.0 17.0 0.10 0.10 0.10 100 1013.3
20181115145036 58 45 6.0 19.0 0.10 0.10 0.10 100 1013.5
20181115144532 58 45 9.0 22.0 0.10 0.10 0.10 100 1013.7
20181115144029 58 90 7.0 22.0 0.09 0.09 0.09 100 1013.9
20181115143524 58 90 15.0 22.0 0.09 0.09 0.09 100 1013.9
20181115143022 57 90 7.0 19.0 0.09 0.09 0.09 100 1014.3
20181115142517 57 90 4.0 19.0 0.09 0.09 0.09 100 1014.5
20181115142013 56 180 4.0 12.0 0.06 0.06 0.06 100 1014.6
20181115141510 56 90 3.0 12.0 0.04 0.04 0.04 100 1015.1
20181115141005 56 113 5.0 14.0 0.03 0.03 0.03 100 1015.6
20181115140502 55 135 3.0 14.0 0.03 0.03 0.03 100 1015.3
20181115135958 55 90 4.0 14.0 0.03 0.03 0.03 100 1015.5
20181115135459 55 45 5.0 10.0 0.00 0.00 0.00 100 1015.8
20181115134951 55 135 3.0 10.0 0.00 0.00 0.00 100 1016.2
20181115134449 55 113 7.0 9.0 0.00 0.00 0.00 100 1016.2
20181115134223 55 90 5.0 8.0 0.00 0.00 0.00 100 1016.5
20181115133654 55 90 5.0 12.0 0.00 0.00 0.00 100 1016.5
20181115133149 55 135 4.0 12.0 0.00 0.00 0.00 100 1016.4
20181115132647 54 22 4.0 8.0 0.00 0.00 0.00 100 1016.4
20181115132134 54 338 4.0 14.0 0.00 0.00 0.00 100 1016.6
20181115131616 54 45 7.0 14.0 0.00 0.00 0.00 100 1016.6
20181115131110 54 68 4.0 14.0 0.00 0.00 0.00 100 1016.7
20181115130606 53 158 7.0 14.0 0.00 0.00 0.00 100 1016.7
20181115130037 53 158 4.0 13.0 0.00 0.00 0.00 100 1016.7
20181115125530 53 112 7.0 13.0 0.00 0.00 0.00 100 1017.1
20181115125021 53 292 5.0 15.0 0.00 0.00 0.00 100 1017.1
20181115124520 53 112 6.0 15.0 0.00 0.00 0.00 100 1017.3
20181115124003 52 112 4.0 15.0 0.00 0.00 0.00 100 1017.3
20181115123454 52 112 5.0 14.0 0.00 0.00 0.00 100 1017.6
20181115122950 52 22 6.0 14.0 0.00 0.00 0.00 100 1017.6
20181115122444 52 45 4.0 4.0 0.00 0.00 0.00 100 1017.7
20181115121908 52 90 10.0 20.0 0.00 0.00 0.00 100 1017.3
20181115121405 52 135 7.0 20.0 0.00 0.00 0.00 100 1017.2
20181115120901 51 90 13.0 20.0 0.00 0.00 0.00 100 1017.6
20181115120357 51 45 7.0 20.0 0.00 0.00 0.00 100 1017.5
20181115115853 51 0 7.0 16.0 0.00 0.00 0.00 100 1017.6
20181115115350 51 90 9.0 19.0 0.00 0.00 0.00 100 1018.1
20181115114845 51 90 7.0 19.0 0.00 0.00 0.00 100 1018.0
20181115114342 51 113 5.0 17.0 0.00 0.00 0.00 100 1017.9
20181115113837 51 90 10.0 20.0 0.00 0.00 0.00 100 1018.3
20181115113334 50 45 9.0 20.0 0.00 0.00 0.00 100 1018.4
20181115112831 50 45 9.0 20.0 0.00 0.00 0.00 100 1018.3
20181115112327 50 338 5.0 16.0 0.00 0.00 0.00 100 1018.6
20181115111823 50 45 7.0 16.0 0.00 0.00 0.00 100 1018.9
20181115111319 50 45 4.0 13.0 0.00 0.00 0.00 100 1019.3
20181115110815 50 90 4.0 13.0 0.00 0.00 0.00 100 1019.4
20181115110311 49 135 5.0 13.0 0.00 0.00 0.00 100 1019.4
20181115105807 49 0 6.0 15.0 0.00 0.00 0.00 100 1019.4
20181115105305 49 0 7.0 15.0 0.00 0.00 0.00 100 1019.4
20181115104800 48 45 7.0 15.0 0.00 0.00 0.00 100 1019.7
20181115104256 48 90 9.0 15.0 0.00 0.00 0.00 100 1019.6
20181115103753 47 45 6.0 23.0 0.00 0.00 0.00 100 1019.7
20181115103249 47 90 6.0 23.0 0.00 0.00 0.00 100 1019.7
20181115102745 47 270 4.0 17.0 0.00 0.00 0.00 100 1019.9
20181115102242 47 45 6.0 17.0 0.00 0.00 0.00 100 1019.9
20181115101737 47 90 7.0 17.0 0.00 0.00 0.00 100 1020.1
20181115101234 47 90 7.0 17.0 0.00 0.00 0.00 100 1020.6
20181115100730 46 45 5.0 14.0 0.00 0.00 0.00 100 1021.0
20181115100227 46 45 3.0 16.0 0.00 0.00 0.00 100 1021.0
20181115095723 46 0 10.0 16.0 0.00 0.00 0.00 100 1021.0
20181115095219 46 45 5.0 13.0 0.00 0.00 0.00 100 1021.0
20181115094715 46 0 11.0 22.0 0.00 0.00 0.00 100 1021.0
20181115094212 46 45 5.0 22.0 0.00 0.00 0.00 100 1020.8
20181115093707 46 90 7.0 17.0 0.00 0.00 0.00 100 1020.9
20181115093203 46 45 7.0 17.0 0.00 0.00 0.00 100 1021.1
20181115092705 46 45 5.0 17.0 0.00 0.00 0.00 100 1021.5
20181115092200 46 45 6.0 14.0 0.00 0.00 0.00 100 1021.7
20181115091701 46 45 9.0 17.0 0.00 0.00 0.00 100 1022.0
20181115091153 45 45 7.0 17.0 0.00 0.00 0.00 99 1021.7
20181115090649 45 0 5.0 15.0 0.00 0.00 0.00 99 1021.8
20181115090148 45 45 7.0 15.0 0.00 0.00 0.00 98 1021.7
20181115085645 45 23 3.0 12.0 0.00 0.00 0.00 98 1021.8
20181115085141 45 45 4.0 12.0 0.00 0.00 0.00 97 1021.7
20181115084637 45 225 1.0 18.0 0.00 0.00 0.00 97 1022.0
20181115084134 45 68 4.0 18.0 0.00 0.00 0.00 96 1021.8
20181115083630 45 90 7.0 14.0 0.00 0.00 0.00 96 1021.9
20181115083126 45 0 7.0 14.0 0.00 0.00 0.00 95 1022.3
20181115082623 46 90 10.0 16.0 0.00 0.00 0.00 94 1022.4
20181115082119 46 45 5.0 16.0 0.00 0.00 0.00 92 1022.3
20181115081615 46 180 5.0 16.0 0.00 0.00 0.00 91 1022.4
20181115081111 46 0 4.0 16.0 0.00 0.00 0.00 89 1022.8
20181115080608 46 90 7.0 14.0 0.00 0.00 0.00 89 1023.1
20181115080104 47 90 7.0 14.0 0.00 0.00 0.00 88 1023.2
20181115075600 47 45 5.0 14.0 0.00 0.00 0.00 88 1023.3
20181115075057 46 90 6.0 20.0 0.00 0.00 0.00 87 1023.2
20181115074552 46 45 10.0 20.0 0.00 0.00 0.00 87 1023.0
20181115074049 46 23 5.0 16.0 0.00 0.00 0.00 87 1023.0
20181115073545 46 45 6.0 16.0 0.00 0.00 0.00 87 1023.0
20181115073043 46 90 7.0 0.0 0.00 0.00 0.00 87 1022.9
20181115072626 46 0 7.0 20.0 0.00 0.00 0.00 87 1022.9
20181115072122 46 135 6.0 20.0 0.00 0.00 0.00 86 1023.0
20181115071619 46 90 4.0 16.0 0.00 0.00 0.00 86 1022.9
20181115071115 46 338 7.0 16.0 0.00 0.00 0.00 86 1023.0
20181115070611 46 45 6.0 17.0 0.00 0.00 0.00 86 1023.1
20181115070107 46 90 6.0 18.0 0.00 0.00 0.00 85 1023.4
20181115065604 46 0 2.0 18.0 0.00 0.00 0.00 85 1023.7
20181115065100 46 0 13.0 18.0 0.00 0.00 0.00 85 1023.5
20181115064556 46 0 7.0 13.0 0.00 0.00 0.00 85 1023.9
20181115064053 46 45 4.0 16.0 0.00 0.00 0.00 85 1024.1
20181115063549 46 45 7.0 16.0 0.00 0.00 0.00 84 1024.0
20181115063045 46 90 7.0 16.0 0.00 0.00 0.00 84 1024.2
20181115062541 46 45 9.0 16.0 0.00 0.00 0.00 83 1024.2
20181115062037 46 45 5.0 15.0 0.00 0.00 0.00 83 1024.2
20181115061533 46 0 7.0 17.0 0.00 0.00 0.00 82 1024.4
20181115061030 46 45 9.0 18.0 0.00 0.00 0.00 81 1024.4
20181115060526 46 45 4.0 18.0 0.00 0.00 0.00 80 1024.7
20181115060032 46 135 7.0 17.0 0.00 0.00 0.00 80 1024.4
20181115055519 46 23 12.0 17.0 0.00 0.00 0.00 80 1024.7
20181115055015 46 90 9.0 16.0 0.00 0.00 0.00 79 1025.1
20181115054511 45 90 7.0 16.0 0.00 0.00 0.00 79 1025.2
20181115054007 45 45 2.0 21.0 0.00 0.00 0.00 79 1025.2
20181115053503 45 90 10.0 21.0 0.00 0.00 0.00 79 1025.3
20181115052959 45 90 5.0 14.0 0.00 0.00 0.00 78 1025.5
20181115052456 45 45 5.0 14.0 0.00 0.00 0.00 78 1025.6
20181115051952 45 0 7.0 18.0 0.00 0.00 0.00 78 1025.6
20181115051449 45 45 10.0 18.0 0.00 0.00 0.00 78 1025.9
20181115050949 45 0 6.0 14.0 0.00 0.00 0.00 78 1025.7
20181115050444 45 90 6.0 18.0 0.00 0.00 0.00 78 1026.1
20181115045941 45 90 4.0 18.0 0.00 0.00 0.01 77 1026.1
20181115045437 45 0 2.0 16.0 0.00 0.00 0.01 77 1026.3
20181115044933 45 45 3.0 15.0 0.00 0.00 0.01 77 1026.4
20181115044429 45 23 7.0 20.0 0.00 0.00 0.01 77 1026.4
20181115043925 45 90 7.0 20.0 0.00 0.00 0.01 77 1026.3
20181115043421 45 45 6.0 26.0 0.00 0.00 0.01 77 1026.4
20181115042917 45 45 18.0 26.0 0.00 0.00 0.01 76 1026.3
20181115042413 45 45 2.0 14.0 0.00 0.00 0.01 76 1026.4
20181115041909 45 45 9.0 15.0 0.00 0.00 0.01 76 1026.5
20181115041406 45 45 6.0 19.0 0.00 0.00 0.01 77 1026.4
20181115040902 45 45 7.0 20.0 0.00 0.00 0.01 77 1026.5
20181115040358 45 45 7.0 20.0 0.00 0.00 0.01 76 1026.8
20181115035855 45 45 7.0 18.0 0.00 0.00 0.01 76 1027.1
20181115035351 45 45 14.0 18.0 0.00 0.00 0.01 76 1027.5
20181115034847 45 0 7.0 16.0 0.00 0.00 0.01 76 1027.6
20181115034344 45 90 5.0 16.0 0.00 0.00 0.01 76 1027.7
20181115033839 45 45 6.0 17.0 0.00 0.00 0.01 76 1027.6
20181115033336 46 23 9.0 17.0 0.00 0.00 0.01 76 1027.9
20181115032832 46 90 6.0 16.0 0.00 0.00 0.01 76 1027.9
20181115032328 46 45 7.0 18.0 0.00 0.00 0.01 76 1028.1
20181115031824 46 0 10.0 18.0 0.00 0.00 0.01 76 1028.4
20181115031321 46 45 14.0 18.0 0.00 0.00 0.01 76 1028.3
20181115030817 46 0 7.0 19.0 0.00 0.00 0.01 76 1028.3
20181115030313 46 45 5.0 19.0 0.00 0.00 0.01 76 1028.8
20181115025809 46 90 9.0 15.0 0.00 0.00 0.01 76 1029.0
20181115025305 46 45 7.0 15.0 0.00 0.00 0.01 76 1029.1
20181115024802 46 135 5.0 15.0 0.00 0.00 0.01 76 1028.7
20181115024258 46 0 2.0 14.0 0.00 0.00 0.01 76 1028.9
20181115023755 46 45 3.0 17.0 0.00 0.00 0.01 76 1028.6
20181115023251 46 90 2.0 17.0 0.00 0.00 0.01 76 1028.7
20181115022747 46 0 12.0 17.0 0.00 0.00 0.01 76 1028.8
20181115022243 46 45 6.0 13.0 0.00 0.00 0.01 75 1028.8
20181115021739 46 45 9.0 12.0 0.00 0.00 0.01 75 1028.6
20181115021235 47 0 5.0 10.0 0.00 0.00 0.01 75 1028.4
20181115020731 47 45 9.0 12.0 0.00 0.00 0.01 74 1028.3
20181115020228 47 45 4.0 12.0 0.00 0.00 0.01 73 1028.3
20181115015724 47 0 6.0 14.0 0.00 0.00 0.01 73 1028.5
20181115015221 47 45 6.0 16.0 0.00 0.00 0.01 73 1028.3
20181115014717 47 45 9.0 16.0 0.00 0.00 0.01 73 1027.9
20181115014213 47 0 9.0 16.0 0.00 0.00 0.01 73 1028.0
20181115013709 47 45 2.0 14.0 0.00 0.00 0.01 73 1028.1
20181115013205 47 45 5.0 14.0 0.00 0.00 0.01 73 1028.0
20181115012701 47 90 11.0 15.0 0.00 0.00 0.01 72 1028.0
20181115012158 47 90 7.0 15.0 0.00 0.00 0.01 72 1027.8
20181115011653 47 45 5.0 17.0 0.00 0.00 0.01 72 1028.1
20181115011151 47 90 5.0 17.0 0.00 0.00 0.01 72 1028.1
20181115010647 47 0 4.0 9.0 0.00 0.00 0.01 72 1028.0
20181115010142 47 0 4.0 10.0 0.00 0.00 0.01 72 1027.9
20181115005638 47 90 4.0 14.0 0.00 0.00 0.01 72 1027.7
20181115005140 47 315 3.0 14.0 0.00 0.00 0.01 72 1027.8
20181115004635 47 90 5.0 14.0 0.00 0.00 0.01 72 1027.8
20181115004131 47 135 7.0 13.0 0.00 0.00 0.01 72 1027.7
20181115003628 47 90 7.0 13.0 0.00 0.00 0.01 71 1027.8
20181115003128 47 90 7.0 17.0 0.00 0.00 0.01 71 1027.7
20181115002624 47 45 5.0 17.0 0.00 0.00 0.01 70 1027.8
20181115002120 47 45 5.0 15.0 0.00 0.00 0.01 70 1027.9
20181115001616 46 45 7.0 13.0 0.00 0.00 0.01 70 1027.8
20181115001112 46 0 6.0 12.0 0.00 0.00 0.01 69 1027.5
20181115000609 46 90 3.0 12.0 0.00 0.00 0.01 69 1027.6
20181115000119 46 90 5.0 0.0 0.00 0.00 0.01 68 1027.7
20181114235948 47 90 5.0 11.0 0.00 0.00 0.01 68 1027.6
20181114235444 47 0 3.0 13.0 0.00 0.00 0.01 68 1027.8
20181114234941 47 90 6.0 13.0 0.00 0.00 0.01 68 1027.6
20181114234437 47 135 3.0 15.0 0.00 0.00 0.01 67 1027.7
20181114233932 47 45 6.0 15.0 0.00 0.00 0.01 66 1027.6
20181114233429 47 0 5.0 12.0 0.00 0.00 0.01 66 1027.9
20181114232925 47 45 6.0 11.0 0.00 0.00 0.01 66 1028.0